Location: B�rgermoos
(47.6500°N, 9.0667°E)
Time: 18:39:12
(UTC+00:00)

A-11 Canister half - Pass Details

Date: 03 August 2021
Orbit: 1526 x 1683 km, 47.3° (Epoch: 20 September)

Event Time Altitude Azimuth Distance (km) Brightness Sun altitude
Rises 17:43:55 0° 290° (WNW) 4,873 13.9 10.4°
Reaches altitude 10° 17:48:04 10° 276° (W) 3,857 13.6 9.7°
Maximum altitude 17:54:43 21° 232° (SW) 3,019 11.2 8.6°
Drops below altitude 10° 18:01:16 10° 188° (S) 3,758 11.0 7.6°
Sets 18:05:16 0° 173° (S) 4,714 11.3 6.9°
